Time,TemperatureF,DewpointF,PressureIn,WindDirection,WindDirectionDegrees,WindSpeedMPH,WindSpeedGustMPH,Humidity,HourlyPrecipIn,Conditions,Clouds,dailyrainin,SoftwareType,DateUTC
2013-08-09 00:02:00,72.0,70.0,29.93,ENE,74,0.0,0.0,94,0.00,,,0.01,,2013-08-09 05:02:00,
2013-08-09 00:11:00,72.0,70.0,29.93,ENE,74,0.0,0.0,94,0.00,,,0.01,,2013-08-09 05:11:00,
2013-08-09 00:22:00,72.0,70.0,29.93,ENE,74,0.0,0.0,94,0.00,,,0.01,,2013-08-09 05:22:00,
2013-08-09 00:32:00,72.0,70.0,29.93,ENE,74,0.0,0.0,95,0.00,,,0.01,,2013-08-09 05:32:00,
2013-08-09 00:43:00,71.0,69.0,29.94,ENE,74,0.0,0.0,95,0.00,,,0.01,,2013-08-09 05:43:00,
2013-08-09 00:52:00,71.0,69.0,29.94,ENE,74,0.0,0.0,95,0.00,,,0.01,,2013-08-09 05:52:00,
2013-08-09 01:01:00,71.0,69.0,29.93,ENE,74,0.0,0.0,95,0.00,,,0.01,,2013-08-09 06:01:00,
2013-08-09 01:11:00,71.0,70.0,29.93,ENE,74,0.0,0.0,96,0.00,,,0.01,,2013-08-09 06:11:00,
2013-08-09 01:22:00,71.0,70.0,29.93,ENE,74,0.0,0.0,96,0.00,,,0.01,,2013-08-09 06:22:00,
2013-08-09 01:32:00,71.0,70.0,29.93,ENE,74,0.0,0.0,96,0.00,,,0.01,,2013-08-09 06:32:00,
2013-08-09 01:43:00,71.0,70.0,29.93,ENE,74,0.0,0.0,96,0.00,,,0.01,,2013-08-09 06:43:00,
2013-08-09 01:52:00,71.0,70.0,29.93,ENE,74,0.0,0.0,96,0.00,,,0.01,,2013-08-09 06:52:00,
2013-08-09 02:01:00,71.0,70.0,29.93,ENE,74,0.0,0.0,96,0.00,,,0.01,,2013-08-09 07:01:00,
2013-08-09 02:12:00,71.0,70.0,29.93,ENE,74,0.0,0.0,96,0.00,,,0.01,,2013-08-09 07:12:00,
2013-08-09 02:22:00,71.0,70.0,29.93,ENE,74,0.0,0.0,96,0.00,,,0.01,,2013-08-09 07:22:00,
2013-08-09 02:33:00,71.0,70.0,29.93,ENE,74,0.0,0.0,96,0.00,,,0.01,,2013-08-09 07:33:00,
2013-08-09 02:43:00,71.0,70.0,29.93,ENE,74,0.0,0.0,97,0.00,,,0.01,,2013-08-09 07:43:00,
2013-08-09 02:53:00,71.0,70.0,29.93,ENE,74,0.0,0.0,97,0.00,,,0.01,,2013-08-09 07:53:00,
2013-08-09 03:02:00,71.0,70.0,29.93,NNE,17,0.0,0.0,97,0.00,,,0.01,,2013-08-09 08:02:00,
2013-08-09 03:12:00,71.0,70.0,29.94,NW,321,0.0,2.0,97,0.00,,,0.01,,2013-08-09 08:12:00,
2013-08-09 03:22:00,71.0,70.0,29.94,NW,321,0.0,2.0,97,0.00,,,0.01,,2013-08-09 08:22:00,
2013-08-09 03:32:00,71.0,70.0,29.94,NW,320,0.0,0.0,97,0.00,,,0.01,,2013-08-09 08:32:00,
2013-08-09 03:43:00,71.0,70.0,29.94,NW,319,0.0,0.0,97,0.00,,,0.01,,2013-08-09 08:43:00,
2013-08-09 03:53:00,71.0,70.0,29.94,NW,319,0.0,0.0,97,0.00,,,0.01,,2013-08-09 08:53:00,
2013-08-09 04:02:00,71.0,70.0,29.94,NW,319,0.0,0.0,97,0.00,,,0.01,,2013-08-09 09:02:00,
2013-08-09 04:12:00,71.0,70.0,29.95,NW,320,0.0,0.0,97,0.00,,,0.01,,2013-08-09 09:12:00,
2013-08-09 04:22:00,71.0,70.0,29.95,NW,320,0.0,0.0,97,0.00,,,0.01,,2013-08-09 09:22:00,
2013-08-09 04:32:00,71.0,70.0,29.94,NW,321,0.0,0.0,97,0.00,,,0.01,,2013-08-09 09:32:00,
2013-08-09 04:43:00,71.0,70.0,29.95,NW,321,0.0,0.0,97,0.00,,,0.01,,2013-08-09 09:43:00,
2013-08-09 04:52:00,71.0,70.0,29.95,NW,321,0.0,0.0,97,0.00,,,0.01,,2013-08-09 09:52:00,
2013-08-09 05:01:00,71.0,70.0,29.95,NW,321,0.0,0.0,97,0.00,,,0.01,,2013-08-09 10:01:00,
2013-08-09 05:12:00,71.0,70.0,29.96,NW,321,0.0,0.0,97,0.00,,,0.01,,2013-08-09 10:12:00,
2013-08-09 05:22:00,71.0,70.0,29.96,NW,321,0.0,0.0,97,0.00,,,0.01,,2013-08-09 10:22:00,
2013-08-09 05:32:00,71.0,70.0,29.96,NW,321,0.0,0.0,97,0.00,,,0.00,,2013-08-09 10:32:00,
2013-08-09 05:43:00,71.0,70.0,29.96,NW,322,0.0,0.0,97,0.00,,,0.00,,2013-08-09 10:43:00,
2013-08-09 05:53:00,71.0,70.0,29.96,NW,322,0.0,0.0,97,0.00,,,0.00,,2013-08-09 10:53:00,
2013-08-09 06:02:00,71.0,70.0,29.96,NW,322,0.0,0.0,98,0.00,,,0.00,,2013-08-09 11:02:00,
2013-08-09 06:11:00,71.0,70.0,29.96,NW,322,0.0,0.0,98,0.00,,,0.00,,2013-08-09 11:11:00,
2013-08-09 06:22:00,71.0,70.0,29.96,NW,322,0.0,0.0,98,0.00,,,0.00,,2013-08-09 11:22:00,
2013-08-09 06:33:00,71.0,70.0,29.96,NW,323,0.0,0.0,98,0.00,,,0.00,,2013-08-09 11:33:00,
2013-08-09 06:43:00,71.0,70.0,29.95,North,5,0.0,0.0,98,0.00,,,0.00,,2013-08-09 11:43:00,
2013-08-09 06:53:00,71.0,70.0,29.95,North,5,0.0,0.0,98,0.00,,,0.00,,2013-08-09 11:53:00,
2013-08-09 07:02:00,71.0,70.0,29.95,North,360,0.0,0.0,98,0.00,,,0.00,,2013-08-09 12:02:00,
2013-08-09 07:12:00,71.0,70.0,29.95,NNE,14,0.0,0.0,98,0.00,,,0.00,,2013-08-09 12:12:00,
2013-08-09 07:22:00,71.0,70.0,29.95,NNE,14,0.0,0.0,98,0.00,,,0.00,,2013-08-09 12:22:00,
2013-08-09 07:32:00,71.0,70.0,29.96,ENE,65,0.0,0.0,98,0.00,,,0.00,,2013-08-09 12:32:00,
2013-08-09 07:43:00,71.0,70.0,29.96,NNE,13,0.0,2.0,97,0.00,,,0.00,,2013-08-09 12:43:00,
2013-08-09 07:52:00,71.0,70.0,29.96,NNE,13,0.0,2.0,97,0.00,,,0.00,,2013-08-09 12:52:00,
2013-08-09 08:01:00,71.0,70.0,29.97,NNW,345,0.0,0.0,97,0.00,,,0.00,,2013-08-09 13:01:00,
2013-08-09 08:12:00,71.0,70.0,29.98,NNE,15,0.0,4.0,97,0.00,,,0.00,,2013-08-09 13:12:00,
2013-08-09 08:23:00,71.0,70.0,29.98,NNE,15,0.0,4.0,97,0.00,,,0.00,,2013-08-09 13:23:00,
2013-08-09 08:32:00,72.0,71.0,29.99,North,355,0.0,0.0,96,0.00,,,0.00,,2013-08-09 13:32:00,
2013-08-09 08:43:00,72.0,71.0,29.99,North,355,0.0,0.0,96,0.00,,,0.00,,2013-08-09 13:43:00,
2013-08-09 08:52:00,72.0,71.0,29.99,North,355,0.0,0.0,96,0.00,,,0.00,,2013-08-09 13:52:00,
2013-08-09 09:02:00,73.0,72.0,30.00,North,355,0.0,0.0,96,0.00,,,0.00,,2013-08-09 14:02:00,
2013-08-09 09:11:00,73.0,71.0,30.00,SSW,208,0.0,0.0,94,0.00,,,0.00,,2013-08-09 14:11:00,
2013-08-09 09:22:00,73.0,71.0,30.00,SSW,208,0.0,0.0,94,0.00,,,0.00,,2013-08-09 14:22:00,
2013-08-09 09:33:00,74.0,72.0,30.01,SSW,208,0.0,0.0,92,0.00,,,0.00,,2013-08-09 14:33:00,
2013-08-09 09:43:00,74.0,72.0,30.01,NW,304,0.0,0.0,92,0.00,,,0.00,,2013-08-09 14:43:00,
2013-08-09 09:53:00,74.0,72.0,30.01,NW,304,0.0,0.0,92,0.00,,,0.00,,2013-08-09 14:53:00,
2013-08-09 10:02:00,74.0,72.0,30.01,NW,305,0.0,0.0,92,0.00,,,0.00,,2013-08-09 15:02:00,
2013-08-09 10:11:00,74.0,71.0,30.01,NW,321,0.0,2.0,91,0.00,,,0.00,,2013-08-09 15:11:00,
2013-08-09 10:22:00,74.0,71.0,30.01,NW,321,0.0,2.0,91,0.00,,,0.00,,2013-08-09 15:22:00,
2013-08-09 10:33:00,74.0,71.0,30.01,NW,304,0.0,1.0,91,0.00,,,0.00,,2013-08-09 15:33:00,
2013-08-09 10:44:00,74.0,71.0,30.01,NW,317,0.0,0.0,91,0.00,,,0.00,,2013-08-09 15:44:00,
2013-08-09 10:53:00,74.0,71.0,30.01,NW,317,0.0,0.0,91,0.00,,,0.00,,2013-08-09 15:53:00,
2013-08-09 11:01:00,74.0,71.0,30.01,NW,313,0.0,2.0,91,0.00,,,0.00,,2013-08-09 16:01:00,
2013-08-09 11:11:00,75.0,73.0,30.01,NNW,327,0.0,5.0,92,0.00,,,0.00,,2013-08-09 16:11:00,
2013-08-09 11:22:00,75.0,73.0,30.01,NNW,327,0.0,5.0,92,0.00,,,0.00,,2013-08-09 16:22:00,
2013-08-09 11:32:00,75.0,72.0,30.01,North,355,0.0,0.0,90,0.00,,,0.00,,2013-08-09 16:32:00,
2013-08-09 11:43:00,75.0,72.0,30.01,NW,317,0.0,3.0,90,0.00,,,0.00,,2013-08-09 16:43:00,
2013-08-09 11:53:00,75.0,72.0,30.01,NW,317,0.0,3.0,90,0.00,,,0.00,,2013-08-09 16:53:00,
2013-08-09 12:02:00,76.0,73.0,30.01,NNW,338,0.0,4.0,89,0.00,,,0.00,,2013-08-09 17:02:00,
2013-08-09 12:11:00,76.0,73.0,30.01,NNE,16,0.0,4.0,89,0.00,,,0.00,,2013-08-09 17:11:00,
2013-08-09 12:22:00,76.0,73.0,30.01,NNE,16,0.0,4.0,89,0.00,,,0.00,,2013-08-09 17:22:00,
2013-08-09 12:33:00,77.0,73.0,30.01,NNE,17,1.0,4.0,87,0.00,,,0.00,,2013-08-09 17:33:00,
2013-08-09 12:43:00,77.0,72.0,30.01,NNW,336,0.0,4.0,86,0.00,,,0.00,,2013-08-09 17:43:00,
2013-08-09 12:52:00,77.0,72.0,30.01,NNW,336,0.0,4.0,86,0.00,,,0.00,,2013-08-09 17:52:00,
2013-08-09 13:01:00,78.0,72.0,30.01,NNE,19,0.0,0.0,83,0.00,,,0.00,,2013-08-09 18:01:00,
2013-08-09 13:11:00,79.0,73.0,30.01,North,9,0.0,0.0,83,0.00,,,0.00,,2013-08-09 18:11:00,
2013-08-09 13:22:00,79.0,73.0,30.01,North,9,0.0,0.0,83,0.00,,,0.00,,2013-08-09 18:22:00,
2013-08-09 13:32:00,80.0,72.0,30.01,NW,320,0.0,4.0,77,0.00,,,0.00,,2013-08-09 18:32:00,
2013-08-09 13:43:00,80.0,71.0,30.00,NE,40,0.0,1.0,74,0.00,,,0.00,,2013-08-09 18:43:00,
2013-08-09 13:53:00,80.0,71.0,30.00,NE,40,0.0,1.0,74,0.00,,,0.00,,2013-08-09 18:53:00,
2013-08-09 14:02:00,80.0,72.0,30.01,NW,316,0.0,2.0,76,0.00,,,0.00,,2013-08-09 19:02:00,
2013-08-09 14:11:00,80.0,72.0,30.01,West,276,0.0,4.0,77,0.00,,,0.00,,2013-08-09 19:11:00,
2013-08-09 14:22:00,80.0,72.0,30.01,West,276,0.0,4.0,77,0.00,,,0.00,,2013-08-09 19:22:00,
2013-08-09 14:32:00,80.0,72.0,30.01,SW,228,0.0,0.0,76,0.00,,,0.00,,2013-08-09 19:32:00,
2013-08-09 14:43:00,81.0,72.0,30.01,SW,225,0.0,1.0,75,0.00,,,0.00,,2013-08-09 19:43:00,
2013-08-09 14:52:00,81.0,72.0,30.01,SW,225,0.0,1.0,75,0.00,,,0.00,,2013-08-09 19:52:00,
2013-08-09 15:02:00,80.0,72.0,30.01,SW,231,0.0,0.0,77,0.00,,,0.00,,2013-08-09 20:02:00,
2013-08-09 15:11:00,80.0,72.0,30.01,SW,231,0.0,0.0,77,0.00,,,0.00,,2013-08-09 20:11:00,
2013-08-09 15:22:00,80.0,72.0,30.01,SW,231,0.0,0.0,77,0.00,,,0.00,,2013-08-09 20:22:00,
2013-08-09 15:32:00,80.0,72.0,30.00,WSW,256,0.0,0.0,78,0.00,,,0.00,,2013-08-09 20:32:00,
2013-08-09 15:43:00,79.0,72.0,29.99,WSW,256,0.0,0.0,79,0.00,,,0.00,,2013-08-09 20:43:00,
2013-08-09 15:52:00,79.0,72.0,29.99,WSW,256,0.0,0.0,79,0.00,,,0.00,,2013-08-09 20:52:00,
2013-08-09 16:01:00,79.0,73.0,29.99,WSW,256,0.0,0.0,81,0.00,,,0.00,,2013-08-09 21:01:00,
2013-08-09 16:12:00,79.0,73.0,29.99,WSW,256,0.0,0.0,82,0.00,,,0.00,,2013-08-09 21:12:00,
2013-08-09 16:22:00,79.0,73.0,29.99,WSW,256,0.0,0.0,82,0.00,,,0.00,,2013-08-09 21:22:00,
2013-08-09 16:33:00,79.0,73.0,29.99,SSW,212,0.0,0.0,82,0.00,,,0.00,,2013-08-09 21:33:00,
2013-08-09 16:43:00,78.0,72.0,29.99,SW,217,0.0,0.0,81,0.00,,,0.00,,2013-08-09 21:43:00,
2013-08-09 16:52:00,78.0,72.0,29.99,SW,217,0.0,0.0,81,0.00,,,0.00,,2013-08-09 21:52:00,
2013-08-09 17:01:00,78.0,72.0,29.99,SW,217,0.0,0.0,83,0.00,,,0.00,,2013-08-09 22:01:00,
2013-08-09 17:11:00,78.0,72.0,29.99,SW,217,0.0,0.0,83,0.00,,,0.00,,2013-08-09 22:11:00,
2013-08-09 17:22:00,78.0,72.0,29.99,SW,217,0.0,0.0,83,0.00,,,0.00,,2013-08-09 22:22:00,
2013-08-09 17:32:00,78.0,73.0,29.98,SW,217,0.0,0.0,86,0.01,,,0.01,,2013-08-09 22:32:00,
2013-08-09 17:42:00,78.0,73.0,29.98,SSW,212,0.0,0.0,86,0.01,,,0.01,,2013-08-09 22:42:00,
2013-08-09 17:52:00,78.0,73.0,29.98,SSW,212,0.0,0.0,86,0.01,,,0.01,,2013-08-09 22:52:00,
2013-08-09 18:01:00,78.0,73.0,29.98,SSW,213,0.0,0.0,86,0.01,,,0.01,,2013-08-09 23:01:00,
2013-08-09 18:11:00,78.0,73.0,29.98,SSW,213,0.0,0.0,84,0.00,,,0.01,,2013-08-09 23:11:00,
2013-08-09 18:22:00,78.0,73.0,29.98,SSW,213,0.0,0.0,84,0.00,,,0.01,,2013-08-09 23:22:00,
2013-08-09 18:32:00,78.0,73.0,29.98,SSW,213,0.0,0.0,84,0.00,,,0.01,,2013-08-09 23:32:00,
2013-08-09 18:43:00,78.0,73.0,29.98,SSW,213,0.0,0.0,84,0.00,,,0.01,,2013-08-09 23:43:00,
2013-08-09 18:52:00,78.0,73.0,29.98,SSW,213,0.0,0.0,84,0.00,,,0.01,,2013-08-09 23:52:00,
2013-08-09 19:01:00,77.0,72.0,29.99,SSW,213,0.0,0.0,85,0.00,,,0.01,,2013-08-10 00:01:00,
2013-08-09 19:11:00,77.0,73.0,29.99,SSW,213,0.0,0.0,87,0.00,,,0.01,,2013-08-10 00:11:00,
2013-08-09 19:22:00,77.0,73.0,29.99,SSW,213,0.0,0.0,87,0.00,,,0.01,,2013-08-10 00:22:00,
2013-08-09 19:33:00,77.0,73.0,29.99,SSW,213,0.0,0.0,87,0.00,,,0.01,,2013-08-10 00:33:00,
2013-08-09 19:43:00,77.0,73.0,29.99,SSW,213,0.0,0.0,87,0.00,,,0.01,,2013-08-10 00:43:00,
2013-08-09 19:52:00,76.0,73.0,30.00,SSW,213,0.0,0.0,89,0.00,,,0.01,,2013-08-10 00:52:00,
2013-08-09 20:01:00,76.0,73.0,30.00,SSW,213,0.0,0.0,89,0.00,,,0.01,,2013-08-10 01:01:00,
2013-08-09 20:11:00,76.0,73.0,30.01,SSW,213,0.0,0.0,90,0.00,,,0.01,,2013-08-10 01:11:00,
2013-08-09 20:22:00,76.0,73.0,30.01,SSW,213,0.0,0.0,90,0.00,,,0.01,,2013-08-10 01:22:00,
2013-08-09 20:32:00,76.0,73.0,30.01,SSW,213,0.0,0.0,90,0.00,,,0.01,,2013-08-10 01:32:00,
2013-08-09 20:43:00,76.0,73.0,30.01,SSW,213,0.0,0.0,90,0.00,,,0.01,,2013-08-10 01:43:00,
2013-08-09 20:52:00,74.0,71.0,30.01,SSW,213,0.0,0.0,91,0.00,,,0.01,,2013-08-10 01:52:00,
2013-08-09 21:03:00,74.0,71.0,30.01,SSW,213,0.0,0.0,91,0.00,,,0.01,,2013-08-10 02:03:00,
2013-08-09 21:11:00,74.0,71.0,30.01,SSW,213,0.0,0.0,91,0.00,,,0.01,,2013-08-10 02:11:00,
2013-08-09 21:21:00,74.0,71.0,30.01,SSW,213,0.0,0.0,91,0.00,,,0.01,,2013-08-10 02:21:00,
2013-08-09 21:32:00,74.0,71.0,30.01,SSW,213,0.0,0.0,91,0.00,,,0.01,,2013-08-10 02:32:00,
2013-08-09 22:01:00,72.0,70.0,30.04,SSW,213,0.0,0.0,93,0.00,,,0.01,,2013-08-10 03:01:00,
2013-08-09 22:11:00,72.0,70.0,30.04,SSW,213,0.0,0.0,93,0.00,,,0.01,,2013-08-10 03:11:00,
2013-08-09 22:21:00,72.0,70.0,30.04,SSW,213,0.0,0.0,93,0.00,,,0.01,,2013-08-10 03:21:00,
2013-08-09 22:32:00,71.0,69.0,30.04,SSW,213,0.0,0.0,93,0.00,,,0.01,,2013-08-10 03:32:00,
2013-08-09 22:42:00,71.0,69.0,30.04,SSW,213,0.0,0.0,93,0.00,,,0.01,,2013-08-10 03:42:00,
2013-08-09 22:52:00,71.0,69.0,30.04,SSW,213,0.0,0.0,93,0.00,,,0.01,,2013-08-10 03:52:00,
2013-08-09 23:02:00,72.0,70.0,30.05,SSW,213,0.0,0.0,95,0.00,,,0.01,,2013-08-10 04:02:00,
2013-08-09 23:12:00,72.0,70.0,30.05,SSW,213,0.0,0.0,95,0.00,,,0.01,,2013-08-10 04:12:00,
2013-08-09 23:22:00,71.0,69.0,30.05,SSW,213,0.0,0.0,95,0.00,,,0.01,,2013-08-10 04:22:00,
2013-08-09 23:32:00,71.0,69.0,30.05,SSW,213,0.0,0.0,95,0.00,,,0.01,,2013-08-10 04:32:00,
2013-08-09 23:43:00,71.0,69.0,30.05,SSW,213,0.0,0.0,95,0.00,,,0.01,,2013-08-10 04:43:00,
2013-08-09 23:53:00,71.0,69.0,30.05,SSW,213,0.0,0.0,95,0.00,,,0.01,,2013-08-10 04:53:00,